Flag for Norway Weather past 2 weeks in Sandefjord, Norway

Now
50 °F

Light rain. Broken clouds.


Feels Like: 45 °F
Forecast: 43 / 59 °F
Wind: 14 mph from Southwest

Location: Torp

Current Time: May 24, 2015 at 3:21:25 PM

Latest Report: May 24, 2015 at 2:50 PM


Visibility: 5 mi

Pressure: 29.92 "Hg

Humidity: 82%

Dew point: 45 °F

Location of SandefjordLocation

Historic Weather in Sandefjord — Graph

°F

Sandefjord temperature yesterday

Maximum temperature yesterday: 63 °F (at 1:50 PM)
Minimum temperature yesterday: 39 °F (at 2:50 AM)
Average temperature yesterday: 53 °F

Past Weeks' High & Low Weather Summary

 TemperatureHumidityPressure
High63 °F (May 23, 1:50 PM)100% (May 9, 11:50 PM)30.15 "Hg (May 9, 11:50 PM)
Low36 °F (May 18, 3:20 AM)29% (May 10, 5:50 PM)29.39 "Hg (May 19, 8:20 AM)
Average48 °F72%29.82 "Hg
* Reported May 9 1:20 PM — May 24 1:50 PM, Sandefjord, Weather by CustomWeather, © 2015

Note: Actual official high and low records may vary slightly from our data, if they occured in-between our weather recording intervals... More about our weather records

Advertising

Sandefjord weather history for previous 24 hours

 ConditionsComfort  
Time TempWeatherWind HumidityBarometerVisibility
1:50 PM
Sun, May 24
48 °FDrizzle. Broken clouds.12 mph82%29.92 "HgN/A
1:20 PM50 °FDrizzle. Broken clouds.12 mph71%29.92 "HgN/A
12:50 PM52 °FBroken clouds.8 mph58%29.92 "HgN/A
12:20 PM52 °FBroken clouds.9 mph54%29.92 "HgN/A
11:50 AM52 °FBroken clouds.10 mph50%29.92 "HgN/A
11:20 AM52 °FSunny.9 mph54%29.92 "Hg10 mi
10:50 AM52 °FSunny.9 mph44%29.92 "Hg10 mi
10:20 AM50 °FSunny.9 mph47%29.92 "Hg10 mi
9:50 AM50 °FSunny.7 mph50%29.92 "Hg10 mi
9:20 AM50 °FSunny.6 mph54%29.92 "Hg10 mi
8:50 AM48 °FPassing clouds.3 mph54%29.92 "HgN/A
8:20 AM48 °FSunny.1 mph46%29.92 "Hg10 mi
7:50 AM46 °FSunny.1 mph57%29.92 "Hg10 mi
7:20 AM46 °FSunny.5 mph57%29.92 "Hg10 mi
6:50 AM43 °FSunny.3 mph71%29.92 "Hg10 mi
6:20 AM43 °FSunny.2 mph61%29.92 "Hg10 mi
5:50 AM39 °FSunny.2 mph65%29.92 "Hg10 mi
5:20 AM39 °FChilly.1 mph65%29.92 "HgN/A
4:50 AM41 °FQuite cool.2 mph61%29.95 "HgN/A
4:20 AM39 °FChilly.1 mph65%29.95 "HgN/A
3:50 AM41 °FQuite cool.3 mph61%29.95 "HgN/A
3:20 AM43 °FQuite cool.2 mph53%29.95 "HgN/A
2:50 AM43 °FQuite cool.3 mph57%29.95 "HgN/A
2:20 AM43 °FQuite cool.3 mph57%29.95 "HgN/A
1:50 AM45 °FQuite cool.3 mph53%29.95 "HgN/A
1:20 AM43 °FQuite cool.7 mph57%29.95 "HgN/A
12:50 AM45 °FQuite cool.6 mph53%29.95 "HgN/A
12:20 AM45 °FQuite cool.6 mph57%29.95 "HgN/A
11:50 PM
Sat, May 23
46 °FCool.5 mph50%29.95 "HgN/A
11:20 PM48 °FCool.7 mph46%29.95 "HgN/A
10:50 PM50 °FSunny.10 mph43%29.95 "Hg10 mi
10:20 PM52 °FSunny.8 mph44%29.95 "Hg10 mi
9:50 PM54 °FSunny.8 mph38%29.95 "Hg10 mi
9:20 PM54 °FPassing clouds.6 mph41%29.95 "HgN/A
8:50 PM57 °FPassing clouds.8 mph33%29.92 "HgN/A
8:20 PM57 °FSunny.10 mph33%29.92 "Hg10 mi
7:50 PM59 °FPassing clouds.12 mph31%29.92 "HgN/A
7:20 PM59 °FSunny.10 mph34%29.92 "Hg10 mi
6:50 PM61 °FSunny.14 mph34%29.92 "Hg10 mi
6:20 PM61 °FSunny.12 mph34%29.92 "Hg10 mi
5:50 PM61 °FPassing clouds.10 mph29%29.92 "HgN/A
5:20 PM61 °FPassing clouds.10 mph31%29.92 "HgN/A
4:50 PM63 °FPassing clouds.8 mph30%29.92 "HgN/A
4:20 PM63 °FPassing clouds.9 mph32%29.92 "HgN/A
3:50 PM63 °FPassing clouds.10 mph32%29.92 "HgN/A
3:20 PM63 °FPassing clouds.10 mph32%29.92 "HgN/A
Weather by CustomWeather, © 2015

See weather overviewHow to use our weather pages